Location: Innsbruck
(47.2657°N, 11.3914°E)
Time: 08:35:49
(UTC+02:00)

Nauka - Pass Details

Date: 28 September 2021
Orbit: 418 x 423 km, 51.6° (Epoch: 18 October)

Event Time Altitude Azimuth Distance (km) Brightness Sun altitude
Rises 19:22:20 0° 281° (WNW) 2,363 ? -4.6°
Reaches altitude 10° 19:24:32 10° 290° (WNW) 1,500 ? -5.0°
Maximum altitude 19:27:42 37° 0° (N) 672 ? -5.6°
Drops below altitude 10° 19:30:52 10° 70° (ENE) 1,503 ? -6.1°
Enters shadow 19:31:30 - 73° (ENE) 1,745 ? -6.2°
